Regional Weather Roundup
Issued by NWS Albany, NY

Home | Current Version | Previous Version | Text Only | Print | Product List | Glossary On
Versions: 1 2 3 4 5 6 7 8 9 10 11 12 13 14 15 16 17 18 19 20 21 22 23 24 25 26 27 28 29 30 31 32 33 34 35 36 37 38 39 40 41 42 43 44 45 46 47 48 49 50
000
ASUS41 KALY 021110
RWRALY

NEW YORK STATE HOURLY WEATHER ROUNDUP
NATIONAL WEATHER SERVICE ALBANY NY
700 AM EDT TUE SEP 02 2014

NOTE: "FAIR" INDICATES FEW OR NO CLOUDS BELOW 12,000 FEET WITH NO
SIGNIFICANT WEATHER AND/OR NO OBSTRUCTIONS TO VISIBILITY.

NYZ032-033-038>043-046>054-057>066-NYZ062>081-021200-
EAST


CITY           SKY/WX    TMP DP  RH WIND       PRES   REMARKS
ALBANY         PTCLDY    73  70  90 S7        29.89R
GLENS FALLS    FOG       65  64  97 CALM      29.88S VSB 1
POUGHKEEPSIE   PTCLDY    70  67  90 CALM      29.90R
NEWBURGH       CLEAR     70  70 100 CALM      29.93R
MONTGOMERY     PTCLDY    66  65  96 CALM      29.91R FOG
WHITE PLAINS   CLEAR     72  71  97 CALM      29.92R
ISLIP          MOCLDY    74  74 100 CALM      29.91R FOG
NEW YORK CITY  MOCLDY    80  72  76 S3        29.90R
CENTRAL PARK   CLEAR     77  72  84 W5        29.94R
$$

NYZ005>009-017-018-044>046-055-056-021200-
CENTRAL


CITY           SKY/WX    TMP DP  RH WIND       PRES   REMARKS
FULTON         CLOUDY    73  68  84 SW5       29.86R
SYRACUSE       CLOUDY    76  69  79 SW8       29.86R
ROME           CLOUDY    71  69  93 E5        29.88R
ELMIRA         MOCLDY    70  69  97 CALM      29.91R FOG
BINGHAMTON     CLOUDY    70  68  93 SW7       29.95R
MONTICELLO     CLOUDY    64  64 100 CALM      29.97R VSB<1/4
$$

NYZ026>034-041>043-021200-
NORTH


CITY           SKY/WX    TMP DP  RH WIND       PRES   REMARKS
WATERTOWN      CLOUDY    75  66  73 SW10G20   29.83R
FORT DRUM      NOT AVBL
MASSENA        PTCLDY    72  69  90 SW8       29.79R
SARANAC LAKE   PTCLDY    64  62  93 SW6       29.88S FOG
PLATTSBURGH    PTCLDY    63  62  97 CALM      29.82R
$$

NYZ001>004-010>016-019>021-021200-
WEST


CITY           SKY/WX    TMP DP  RH WIND       PRES   REMARKS
NIAGARA FALLS  MOCLDY    72  70  93 SW10      29.86R
BUFFALO        MOCLDY    74  70  87 SW12      29.87R
DUNKIRK        CLOUDY    74  70  87 SW9       29.89R
JAMESTOWN      CLOUDY    70  66  88 S5        29.95R
WELLSVILLE     CLOUDY    70  67  90 W6        29.98R
ROCHESTER      MOCLDY    72  69  90 SW3       29.87R
PENN YAN       MOCLDY    71  68  90 SW7       29.91R
$$

             KEY
       WCI = WIND CHILL INDEX
       VSB = VISIBILITY
       HX  = HEAT INDEX
$$


USA.gov is the U.S. government's official web portal to all federal, state and local government web resources and services.